Regional Weather Roundup
Issued by NWS

Home | Current Version | Previous Version | Graphics & Text | Print | Product List | Glossary On
Versions: 1 2 3 4 5 6 7 8 9 10 11 12 13 14 15 16 17 18 19 20 21 22 23 24 25 26 27
000
ASUS45 KBOU 260207
RWRCO

WEATHER ROUNDUP FOR COLORADO
NATIONAL WEATHER SERVICE DENVER/BOULDER CO
800 PM MDT WED MAY 25 2016

NOTE: "FAIR" INDICATES FEW OR NO CLOUDS BELOW 12000 FEET WITH NO
SIGNIFICANT WEATHER AND/OR OBSTRUCTIONS TO VISIBILITY.

COZ001>005-013-030-031-260300-
...NORTHWEST COLORADO...

CITY           SKY/WX    TMP DP  RH WIND       PRES   REMARKS
CRAIG          FAIR      53  31  42 S8        30.01R
HAYDEN         FAIR      55  27  33 NW5       30.03R
MEEKER         FAIR      63  15  15 SW10      30.02R
MOUNT WERNER   NOT AVBL
STEAMBOAT SPGS FAIR      59  22  24 W5        30.04R
WALDEN         FAIR      54  19  26 SW14      30.11S
$$

COZ006>008-011-260300-
...WEST CENTRAL VALLEYS...

CITY           SKY/WX    TMP DP  RH WIND       PRES   REMARKS
GRAND JUNCTION FAIR      69  14  12 NW7       29.93S
MONTROSE       FAIR      68  11  11 NW7       29.99S
EAGLE          FAIR      64  18  16 W5        30.04S
RIFLE          FAIR      66  21  18 W9        29.97R
DELTA          FAIR      73   7   8 SW10      29.95F
NUCLA          FAIR      64  12  13 W5        30.02F
$$

COZ017>023-064>068-260300-
...SOUTHWEST COLORADO...

CITY           SKY/WX    TMP DP  RH WIND       PRES   REMARKS
DURANGO        FAIR      61  21  21 N6        30.03S
CORTEZ         MOCLDY    67  19  16 SW14      29.99R
PAGOSA SPRINGS FAIR      60  13  15 CALM      30.11S
TELLURIDE      FAIR      54   7  15 S7        30.18S
WOLF CREEK PAS FAIR      36   9  32 SW13G18   30.34S
$$

COZ009-010-012-014-032>034-037-058>063-260300-
...CENTRAL COLORADO...

CITY           SKY/WX    TMP DP  RH WIND       PRES   REMARKS
ASPEN          FAIR      50  18  28 W6        30.08S
BUENA VISTA    FAIR      55   9  15 W7        30.09R
COPPER MTN     NOT AVBL
BERTHOUD PASS  FAIR      32  23  69 NW9G17    30.33R WCI  24
COTTONWOOD PAS FAIR      52  -6   9 W8        30.20R
GUNNISON       FAIR      59   9  13 NW5       30.12R
KREMMLING      FAIR      55  14  19 SW8       30.08R
LEADVILLE      FAIR      48  -2  12 SW7       30.19R
MONARCH PASS   FAIR      36  10  35 W9G16     30.41R
SALIDA         FAIR      62  10  12 W15       30.14R
SUNLIGHT       FAIR      41  21  45 CALM      30.27R
WILKERSON PASS FAIR      45  -2  14 W9        30.28S
$$

COZ069>075-260300-
...SAN LUIS VALLEY/SANGRE DE CRISTO MOUNTAINS...

CITY           SKY/WX    TMP DP  RH WIND       PRES   REMARKS
ALAMOSA        FAIR      60  15  17 W8        30.08R
LA VETA PASS   FAIR      46   5  18 SW8       30.23S
SAGUACHE       FAIR      55  14  19 NW15      30.10R
$$

COZ035-036-038>040-260300-
...NORTHERN COLORADO FRONT RANGE...

CITY           SKY/WX    TMP DP  RH WIND       PRES   REMARKS
DENVER INTL AP MOCLDY    58  46  64 NE9       29.94R
DMNS CITY PARK   N/A     66  42  42 N17       29.93R
AURORA         MOCLDY    62  44  51 NE2       29.95R
FRONT RANGE AP NOT AVBL
ERIE MUNI ARPT MOCLDY    67  34  29 NW8G16    29.93R
BOULDER MUN AP FAIR      64  43  45 W3        29.94S
CENTENNIAL     FAIR      66  31  27 CALM      29.94R
BROOMFIELD     NOT AVBL
FORT COLLINS   FAIR      70  43  37 SE5       29.93R
LONGMONT       FAIR      67  49  52 W5        29.95S
$$

COZ041-046-047-076>085-087-088-260300-
...PIKES PEAK/PALMER DIVIDE AND SOUTHERN FOOTHILLS...

CITY           SKY/WX    TMP DP  RH WIND       PRES   REMARKS
COLO. SPRINGS  MOCLDY    67  13  12 NW12      29.97R
A. F. ACADEMY  FAIR      63  14  15 VRB5      29.98R
SCHRIEVER AFB  NOT AVBL
ELLICOTT       FAIR     N/A N/A N/A SE10      29.95S
FALCON         FAIR      59  22  24 SE5       30.02R
FORT CARSON    FAIR      68  14  12 W8        29.93R
LIMON          FAIR      59  36  42 NE13      29.95R
MONUMENT HILL  FAIR      61  28  29 CALM      30.03S
TRINIDAD       FAIR      70  16  12 N8        29.94R
$$

COZ042>045-048>051-090-091-260300-
...NORTHEAST COLORADO...

CITY           SKY/WX    TMP DP  RH WIND       PRES   REMARKS
GREELEY ARPT   FAIR      64  43  45 E15       29.93R
AKRON          FAIR      55  46  71 E14       29.94F
BURLINGTON     FAIR      65  48  54 E8        29.90R
WRAY           LGT RAIN  59  50  72 E7        29.95R
STERLING       FAIR      61  45  55 E9        29.94R
HOLYOKE        FAIR      59  50  72 NE6       29.95R
FORT MORGAN    FAIR      59  41  51 NE10      29.94S
$$

COZ086-089-092>099-260300-
...SOUTHEAST COLORADO...

CITY           SKY/WX    TMP DP  RH WIND       PRES   REMARKS
PUEBLO         FAIR      77  11   8 SW13      29.86R
LA JUNTA       FAIR      74  26  16 E12       29.85R
LAMAR          FAIR      71  36  27 E9        29.82S
SPRINGFIELD      N/A     65  28  24 S9        29.88S
$$




USA.gov is the U.S. government's official web portal to all federal, state and local government web resources and services.